Theta_e
287 288 289 289 288 288 287 287 287 286 287 286 284 284 286 287 283 281 286 288 286 288 290 292 293 294 294 294 295 296 296 296 295 289 289 290 292 292 290 290 290 290 289 289 289 289 289 288 287 286 286 285 285 285 285 285 285 285 285 284 283 282 281 281 280 280 279 277 276 275 275 274 274 273 273 272 272 271 271 270 270 270 269 269 269 268 269
286 286 287 288 287 286 286 286 286 287 287 286 286 286 287 287 285 287 287 288 287 290 291 293 294 295 295 295 296 296 295 295 295 292 289 289 290 289 290 290 291 291 290 290 290 289 289 287 287 286 285 284 284 285 285 285 285 285 284 283 282 282 281 280 280 278 277 276 275 275 274 273 273 273 272 271 270 270 269 269 269 268 268 268 268 268 268
283 286 287 287 286 285 284 286 287 287 287 287 287 287 287 287 286 287 287 286 286 291 294 294 295 295 296 295 294 295 295 295 295 294 290 289 289 288 289 290 291 291 291 292 291 291 290 288 287 286 286 285 284 284 284 284 284 284 283 282 282 281 280 280 278 277 276 275 275 274 274 273 272 272 271 270 269 268 268 267 267 267 267 267 267 268 268
280 285 285 285 285 285 284 284 285 285 285 284 285 285 287 286 284 286 286 284 285 291 294 294 294 294 294 293 294 294 295 295 295 294 292 289 290 291 292 292 291 290 290 291 291 291 291 290 288 287 286 284 283 283 283 283 284 283 282 282 281 280 280 279 277 276 275 275 274 273 273 272 271 270 269 268 268 267 267 267 267 267 267 267 267 268 268
279 285 286 284 284 283 280 281 285 286 287 287 288 289 289 289 289 285 283 284 290 292 293 292 292 293 293 294 294 294 295 295 294 294 293 292 290 292 294 293 290 290 291 291 291 291 291 291 290 288 287 285 284 284 283 283 282 281 281 281 280 279 278 277 276 276 275 274 273 272 272 271 270 269 268 268 267 267 266 267 267 266 267 267 267 268 268
280 285 284 285 280 274 276 287 290 289 286 287 285 285 287 289 290 288 290 290 293 293 292 291 292 293 293 294 296 296 296 295 294 294 294 292 291 292 293 292 291 291 291 290 290 290 291 291 291 290 287 286 286 285 284 282 281 280 280 280 279 278 277 277 276 275 274 273 272 271 270 269 269 268 267 267 267 266 266 266 266 266 267 267 267 268 268
279 284 283 279 273 275 286 291 291 291 291 290 288 288 289 290 291 291 290 291 292 293 294 294 294 295 296 296 295 295 295 295 294 294 294 294 293 293 294 294 293 291 291 290 290 289 288 289 290 288 286 286 283 282 282 281 280 279 279 279 278 278 276 276 275 274 273 272 271 270 269 268 267 266 266 265 266 266 266 266 266 266 266 266 267 268 268
283 281 279 274 274 285 287 290 291 292 291 290 288 286 289 291 291 291 290 291 293 293 294 295 296 296 296 296 295 295 296 296 295 294 295 295 295 294 295 294 294 293 291 290 290 290 289 288 288 287 287 284 283 282 281 280 279 279 279 278 278 277 275 275 274 273 272 271 270 268 268 266 266 266 265 265 265 266 266 267 267 267 267 267 267 267 268
278 279 280 278 285 284 285 286 286 288 285 286 285 281 285 291 291 292 291 291 293 293 294 295 295 296 294 292 294 296 296 296 297 296 296 296 295 295 295 295 294 294 292 289 290 289 288 288 287 286 284 283 282 280 279 279 278 278 278 277 277 276 275 274 273 273 272 271 268 267 267 266 265 265 266 266 266 266 266 266 266 267 267 267 267 267 267
286 279 278 279 278 275 281 289 290 294 293 293 291 287 285 292 292 293 292 291 292 292 293 293 294 293 290 288 290 295 296 297 297 297 296 293 294 295 295 295 295 293 292 289 289 289 287 285 286 284 283 282 281 279 278 277 277 277 277 276 276 275 274 274 273 272 272 270 268 267 266 266 266 266 266 266 266 267 266 266 266 266 267 267 267 267 266
284 280 277 276 276 279 287 288 292 293 294 293 291 286 281 289 291 292 292 291 292 292 292 292 292 289 286 287 291 295 296 296 296 293 291 292 293 294 294 294 294 294 292 290 288 285 284 284 283 282 282 281 280 278 278 277 277 276 276 276 276 275 274 273 272 271 271 269 268 267 266 266 266 266 266 266 266 266 266 267 266 266 266 266 266 266 266
282 280 278 276 282 281 287 290 291 293 294 294 285 277 278 291 292 293 293 292 292 292 292 292 291 289 286 288 292 295 295 294 293 292 293 292 291 290 291 292 292 292 289 287 285 284 285 286 282 281 281 281 280 278 277 277 276 276 277 277 276 275 273 272 271 270 270 269 268 267 266 266 266 266 266 265 265 266 266 266 266 266 266 265 265 265 266
281 282 280 282 283 288 290 290 292 292 292 288 280 276 285 291 293 294 294 293 293 294 292 292 289 289 292 292 293 293 293 292 292 290 288 289 290 291 292 293 291 289 287 288 288 287 286 282 281 280 280 280 279 278 277 276 276 277 277 276 274 273 272 270 270 269 269 268 268 267 267 266 266 266 266 265 265 265 265 265 265 265 265 265 265 264 265
280 280 279 279 283 288 293 293 293 290 286 279 279 287 290 289 288 289 290 289 289 288 288 288 288 289 290 290 290 290 290 290 290 291 290 289 288 288 287 287 288 287 286 286 285 284 283 281 280 280 280 280 279 277 276 276 277 277 275 274 273 271 270 269 268 267 267 268 267 266 266 265 265 264 265 265 265 264 264 264 264 264 264 264 263 264 265
282 281 278 277 274 284 284 286 289 288 284 283 286 288 290 291 289 288 289 289 289 289 288 289 289 290 289 289 288 289 289 289 289 289 289 289 289 289 289 288 285 286 285 284 284 284 282 281 280 280 280 279 278 277 276 277 275 274 273 272 270 269 268 267 267 266 266 266 265 265 264 265 264 264 264 263 263 263 264 264 263 263 262 263 263 264 265
276 277 276 276 282 284 288 284 279 282 284 287 290 289 287 291 290 288 287 288 288 288 288 288 289 290 289 290 291 290 291 290 290 291 290 289 290 289 287 286 286 285 284 284 284 283 280 280 279 281 281 280 279 277 277 275 273 272 271 270 269 268 266 266 265 265 264 264 264 264 264 264 264 263 263 262 262 263 263 263 262 262 262 263 263 264 264
278 275 280 284 286 285 287 286 284 285 287 289 290 290 288 287 288 288 286 286 287 287 287 288 288 288 289 289 290 289 290 290 290 290 291 290 289 289 289 288 285 284 285 286 284 282 278 278 279 280 280 281 279 278 277 273 272 270 269 268 267 266 265 264 264 264 263 263 262 263 264 264 263 262 262 262 261 262 263 263 262 262 263 264 263 264 264
284 284 284 285 283 282 283 284 285 285 286 288 289 287 286 286 286 287 286 286 286 286 286 286 286 287 287 287 287 288 288 289 289 290 290 290 291 290 287 284 282 282 281 281 281 282 278 276 278 278 279 280 278 279 274 272 271 270 268 267 266 265 264 263 263 262 262 261 262 262 263 264 264 263 262 262 262 262 262 263 263 263 264 264 264 264 264
275 270 282 280 280 282 282 282 283 284 286 289 288 286 285 285 285 285 285 285 285 285 285 285 285 285 286 286 286 287 287 287 287 288 288 289 289 289 289 287 281 278 280 282 283 282 281 278 277 278 279 279 279 275 271 271 270 268 267 267 265 264 263 262 262 262 261 261 261 261 262 263 263 263 263 263 263 262 262 263 264 264 264 264 264 264 264
273 272 278 279 280 281 281 281 281 283 286 286 286 285 284 284 283 283 283 284 283 284 283 284 284 284 285 285 285 286 286 287 287 288 288 288 289 288 288 286 283 282 282 284 284 283 282 281 277 277 277 278 276 273 271 270 269 268 267 266 265 264 263 262 262 261 261 261 261 261 262 262 262 262 263 264 263 263 263 264 263 263 263 264 264 264 263
275 279 278 279 280 280 282 282 283 284 283 283 282 282 282 282 282 283 284 284 284 284 283 284 284 284 284 285 286 286 287 287 288 289 289 289 289 288 288 283 282 284 284 283 283 283 283 281 277 276 276 276 274 272 271 270 268 268 267 265 264 263 262 262 262 261 261 261 261 261 261 262 263 263 263 264 264 264 266 266 265 264 264 265 265 265 264
272 273 276 279 273 272 277 278 279 280 281 282 281 282 282 282 282 283 283 283 284 284 285 285 285 284 285 286 287 287 288 288 289 290 290 289 289 288 288 287 283 282 282 283 282 282 282 279 276 275 275 275 272 272 270 269 268 267 266 264 263 262 262 261 261 261 261 261 261 261 261 262 262 263 266 268 266 265 265 268 270 270 269 265 266 265 265
271 275 277 277 277 276 278 279 280 281 282 281 280 280 280 280 281 282 281 281 281 281 283 284 284 284 284 285 286 286 286 287 288 288 289 288 288 288 289 288 287 283 282 281 281 281 281 277 275 275 274 274 271 270 269 268 268 267 265 264 263 262 262 261 262 261 261 261 261 261 262 262 262 262 264 266 269 269 269 270 271 271 271 270 271 270 266
276 277 277 277 277 275 278 280 280 281 281 279 278 279 280 280 280 280 280 279 279 279 281 281 283 282 283 284 284 284 285 286 286 286 287 287 287 288 288 287 287 287 284 281 280 280 281 278 275 274 273 272 269 269 268 268 268 267 265 264 263 262 262 263 263 261 262 261 261 262 262 262 262 262 263 263 265 269 271 271 272 272 272 271 271 271 271
275 278 278 278 277 278 279 280 280 279 278 278 277 277 279 279 279 279 278 278 279 279 279 279 280 282 282 282 283 283 284 284 285 285 286 286 287 287 287 287 287 286 286 285 283 282 282 278 275 273 272 271 269 268 267 267 268 267 266 265 264 263 263 263 262 262 262 262 262 262 261 261 262 263 263 263 263 265 268 271 272 272 271 271 271 271 271
279 278 276 275 276 277 279 277 276 276 276 277 277 277 277 278 277 277 277 277 277 278 277 278 278 279 280 280 280 281 281 281 283 283 283 283 284 285 285 286 286 287 286 285 284 283 281 278 275 272 272 271 268 267 266 267 268 267 266 265 265 263 263 262 262 262 262 262 262 262 262 262 262 263 263 264 264 264 263 264 267 269 271 270 270 271 270
276 273 272 273 273 274 274 272 271 274 275 275 275 274 274 274 276 275 275 275 275 277 277 278 278 279 279 279 280 280 280 281 282 282 282 283 283 284 285 286 286 287 287 287 285 282 279 277 273 272 272 271 268 267 266 266 267 267 266 265 265 264 263 263 262 262 262 263 263 262 262 263 263 263 263 264 264 263 263 263 263 262 262 264 267 269 267
271 271 271 267 268 269 270 272 273 273 272 271 272 272 272 271 270 270 270 271 272 273 274 275 275 275 275 276 277 277 278 278 279 280 281 281 283 284 285 285 286 286 286 286 286 283 278 275 272 271 271 271 268 266 265 266 266 266 265 264 264 263 263 263 263 263 263 263 263 263 263 263 263 263 263 263 263 262 262 262 262 261 259 258 257 264 268
269 268 269 269 269 270 271 271 270 269 269 270 270 270 268 267 266 267 268 269 270 270 271 272 273 273 273 273 274 274 274 275 276 277 278 280 281 282 283 284 284 284 285 285 285 282 276 273 271 271 271 269 266 265 264 265 265 266 265 264 264 263 263 263 263 263 263 263 263 264 265 263 263 262 262 262 261 261 261 261 260 259 258 257 256 256 261
266 267 266 266 267 269 268 265 266 267 267 267 267 266 266 265 264 265 267 267 268 267 268 269 269 269 270 270 270 271 272 273 274 275 276 278 279 280 281 282 282 282 280 279 279 278 274 272 271 270 270 266 264 264 264 264 265 265 265 265 264 264 263 263 263 264 263 263 263 264 262 262 262 261 260 260 259 259 259 258 258 257 256 256 258 256 255
264 264 263 264 266 266 264 264 265 265 265 265 265 264 264 264 263 264 264 265 266 266 266 266 266 267 267 267 268 269 270 270 271 272 273 274 276 277 278 279 279 279 280 280 279 277 273 272 271 271 271 265 263 263 263 264 264 265 265 265 264 265 265 265 265 263 263 263 262 261 260 260 260 259 259 258 258 257 257 257 257 256 256 256 255 255 254
261 261 262 264 263 261 261 262 263 263 263 263 262 261 262 262 261 261 262 263 263 264 264 264 264 264 265 266 266 267 267 268 268 269 270 271 272 274 275 276 277 278 280 281 282 279 274 272 271 271 268 263 263 263 263 264 265 265 264 264 264 264 265 265 264 264 263 262 261 260 259 259 259 258 258 257 257 256 256 256 255 255 254 254 254 254 254
258 258 261 261 260 260 260 260 260 260 261 260 261 262 262 262 261 261 261 262 262 262 262 262 263 263 264 264 264 264 265 266 267 268 268 269 271 272 274 276 277 278 279 280 281 281 275 273 273 270 264 263 262 262 263 264 265 265 265 264 264 264 264 266 264 263 261 260 259 259 259 258 258 258 257 257 257 256 256 255 255 254 254 254 254 253 254
259 258 259 259 259 258 258 259 260 259 260 260 261 260 260 260 260 260 260 260 260 261 261 261 262 262 262 262 262 263 264 264 264 265 267 269 270 271 273 274 275 277 278 280 281 280 276 274 270 265 264 262 262 263 264 265 265 265 265 264 264 264 263 263 263 261 260 259 259 258 258 258 258 257 257 256 256 256 255 255 254 254 253 253 252 252 256
260 260 261 260 260 260 260 260 259 259 259 258 258 259 259 259 259 259 260 260 259 259 260 261 261 261 261 262 262 263 263 263 264 265 267 268 269 271 272 274 275 277 278 279 278 277 276 272 267 264 262 262 262 263 264 265 265 265 265 264 264 263 263 262 261 260 259 259 258 257 258 257 257 256 256 256 255 255 255 254 254 253 253 252 252 251 253
259 258 259 258 259 258 258 258 258 258 258 258 258 258 258 258 258 258 258 258 259 260 260 260 260 261 261 261 262 263 263 264 265 266 267 268 269 271 272 273 274 276 277 278 277 273 269 266 262 261 261 262 262 263 264 265 265 265 264 264 263 262 261 260 260 260 259 258 258 258 258 257 256 255 255 255 254 254 254 253 253 253 253 252 251 251 250
258 257 257 257 257 257 257 257 257 257 257 257 257 257 257 257 257 258 259 259 259 259 259 260 260 260 261 262 263 264 265 265 266 267 268 269 271 271 272 273 274 275 276 276 276 266 264 262 260 260 262 262 262 263 264 263 264 264 264 263 262 261 260 260 259 258 258 258 258 257 255 255 254 254 254 254 254 253 253 253 252 252 252 251 251 250 249
256 256 256 256 256 256 256 256 257 257 257 257 257 257 257 257 258 258 258 258 259 259 260 260 261 261 262 264 265 265 266 267 267 268 269 270 271 272 273 274 275 276 275 276 269 263 264 260 260 261 262 262 262 263 263 263 263 264 263 262 261 260 260 259 257 257 257 256 256 255 254 254 253 253 253 253 253 253 253 252 252 252 251 251 250 249 249
255 256 256 256 256 256 256 256 257 257 257 256 256 256 257 258 258 258 258 258 259 260 260 261 262 263 263 262 262 264 266 269 269 269 269 269 270 270 271 270 264 265 268 265 262 263 260 260 261 262 261 262 262 263 262 261 262 264 263 262 261 260 259 258 257 257 256 255 255 254 254 254 254 253 253 253 253 252 252 252 252 251 251 250 249 249 248
254 254 254 255 255 255 255 255 255 256 256 257 256 256 257 257 257 258 258 259 260 262 262 262 261 260 261 262 263 264 265 265 265 263 262 262 265 267 269 263 258 261 261 261 261 260 260 260 261 261 262 262 263 263 262 261 262 263 262 261 261 259 259 258 257 255 255 255 255 254 254 253 253 253 252 252 252 251 251 251 251 250 250 249 249 248 247
253 253 254 254 254 255 255 255 255 255 256 256 256 256 257 258 258 258 258 259 260 261 261 260 260 261 262 263 263 263 264 262 259 258 258 259 261 261 260 256 257 259 260 259 259 259 260 260 261 261 262 262 262 261 262 261 262 262 261 261 260 258 257 256 255 256 256 255 255 254 254 253 253 252 252 251 251 251 250 250 250 250 250 249 248 247 246
253 254 254 254 254 254 254 255 255 255 255 256 256 257 257 258 258 257 259 260 260 260 260 260 261 261 261 261 260 261 261 260 259 258 257 256 256 257 256 255 257 257 259 258 259 259 260 261 261 261 262 262 261 260 260 261 261 261 260 259 258 257 257 256 256 255 255 256 255 255 254 253 253 252 252 251 251 250 250 250 250 249 249 249 248 247 246
253 253 253 253 253 254 254 255 255 255 255 256 256 257 257 257 258 259 259 259 259 258 258 259 259 260 260 259 258 257 257 258 258 258 257 256 257 256 255 255 257 258 258 259 260 260 261 261 261 261 260 260 260 259 259 260 260 259 258 258 257 257 256 256 256 255 255 255 254 254 254 253 253 252 251 251 251 251 251 250 250 249 249 248 247 246 245
253 253 253 253 253 254 255 255 255 255 255 255 257 257 257 257 259 259 258 258 258 258 257 257 257 258 258 258 257 255 255 254 255 256 256 255 255 257 257 257 258 258 258 259 259 259 259 260 260 259 258 258 258 258 260 259 259 258 258 257 257 256 256 255 255 255 255 254 254 254 253 253 253 253 252 252 251 251 251 251 251 251 250 248 247 247 245
253 253 253 253 254 255 255 255 255 255 256 257 257 257 257 258 258 258 258 258 258 257 257 256 256 256 256 257 257 255 255 255 254 255 254 254 253 254 257 257 257 257 257 258 258 258 258 258 258 258 258 258 258 258 259 259 258 258 258 257 257 256 256 256 255 255 254 254 254 254 253 253 253 253 253 253 252 252 252 252 251 250 249 248 248 247 246
253 253 254 255 254 255 255 256 256 257 256 256 255 256 257 257 257 258 258 258 258 257 256 256 255 255 255 255 256 257 255 255 255 256 255 255 254 255 257 257 257 257 257 257 256 256 257 257 257 257 257 258 258 259 259 258 258 258 257 257 256 256 256 255 255 254 254 254 254 254 254 254 254 253 253 253 252 251 250 250 249 248 248 248 247 246 244
253 253 254 254 255 255 256 256 256 255 255 254 253 253 255 256 256 257 258 257 257 257 256 255 255 255 256 255 255 255 254 254 255 256 256 257 257 257 256 256 256 256 256 256 256 256 257 257 257 257 257 257 257 258 258 257 257 257 256 256 256 256 255 255 254 254 254 253 253 252 252 252 252 252 251 250 250 250 249 248 248 248 247 246 246 246 246
253 253 254 255 255 255 255 255 254 253 253 253 253 253 254 255 256 257 256 255 255 256 256 255 255 255 256 255 256 255 255 254 253 253 256 255 255 255 255 255 256 256 256 256 255 256 256 256 256 256 257 257 257 257 257 257 257 256 256 255 255 255 254 254 254 253 253 252 252 252 251 251 250 250 250 250 249 248 248 248 247 246 246 245 245 244 244
254 254 255 255 255 255 254 254 253 253 253 253 254 253 254 254 255 255 254 254 254 254 254 254 254 255 255 256 256 256 256 256 255 253 255 255 255 255 255 256 256 256 255 255 255 256 256 256 256 256 256 256 257 257 256 256 256 255 255 255 254 254 254 253 253 253 252 252 252 251 251 250 250 250 249 248 248 247 247 246 246 245 244 244 244 244 244
254 255 254 254 254 254 253 253 253 253 253 254 253 253 254 254 253 253 253 253 254 254 254 254 254 254 255 255 255 255 255 255 255 255 255 254 254 254 255 255 255 255 255 255 255 255 255 255 255 256 256 256 256 256 256 256 255 255 254 254 253 253 252 252 251 251 252 251 251 250 250 250 249 248 248 247 247 246 245 244 244 246 247 246 244 243 243
254 254 253 254 255 254 254 254 254 254 253 253 253 254 254 253 252 253 253 253 253 253 253 253 254 254 254 254 255 255 255 255 254 255 254 254 255 255 255 255 255 255 255 255 255 255 255 255 255 255 255 255 255 255 255 254 254 253 252 252 252 252 252 252 252 252 251 251 250 250 250 249 248 248 247 246 246 245 245 244 244 243 242 242 243 243 242
255 254 255 255 254 254 254 254 254 254 254 254 254 253 253 253 252 252 252 254 253 252 253 252 252 253 254 254 254 254 254 254 254 254 254 254 254 254 254 255 255 254 254 253 253 254 254 254 254 253 253 254 253 253 252 252 252 251 251 252 252 251 251 251 251 250 250 250 250 249 248 248 248 247 246 246 245 245 245 244 243 243 243 243 243 243 243
Wind_Speed
21 22 23 22 22 21 22 21 19 20 18 12 12 13 15 16 17 22 15 18 21 20 20 22 25 27 25 21 20 20 18 16 12 5 8 11 13 11 9 10 10 10 10 10 12 12 13 12 11 13 12 11 10 10 10 11 12 14 13 13 14 14 15 15 15 15 12 11 11 12 13 13 13 13 13 12 11 11 10 9 8 8 7 7 6 5 4
18 19 21 21 23 20 21 20 21 22 21 23 23 25 25 25 25 24 24 25 30 26 24 25 28 24 21 21 21 21 21 21 20 11 8 11 11 10 10 11 11 12 12 11 12 12 12 12 13 12 12 12 13 14 14 14 14 12 12 14 15 15 16 16 13 12 13 12 12 13 13 14 14 13 12 12 11 10 10 9 8 7 7 6 6 6 5
17 19 21 20 22 21 25 24 22 21 22 25 28 26 25 25 24 25 26 25 25 22 26 28 24 21 19 22 27 30 26 23 24 19 9 11 9 9 11 12 13 13 12 13 13 13 14 14 15 14 14 14 12 12 11 12 13 13 14 14 14 15 16 14 13 13 13 14 14 15 14 13 11 13 12 11 11 10 10 9 9 7 7 8 6 6 6
14 14 21 23 24 24 26 24 23 23 26 27 25 22 25 24 26 27 24 19 19 25 27 20 20 21 22 26 30 30 25 23 22 20 13 9 11 12 13 14 12 12 13 15 16 17 16 15 14 13 12 12 11 13 13 14 13 12 13 14 15 15 14 13 14 15 15 14 14 13 13 13 13 12 11 11 11 10 10 10 8 7 7 7 6 6 6
16 13 20 22 22 20 18 19 24 33 34 29 23 23 23 22 21 19 18 23 24 24 17 18 20 21 24 27 26 25 25 22 21 19 16 13 10 15 18 15 10 11 12 14 15 15 13 13 13 14 15 13 14 14 14 13 11 13 14 14 13 13 12 13 14 14 12 13 13 12 12 12 11 11 12 11 11 11 11 9 9 8 7 7 7 7 7
9 12 18 13 13 18 17 15 30 31 31 27 28 25 27 30 23 19 20 23 20 18 15 18 22 25 27 27 25 20 14 16 19 18 17 12 11 14 15 11 8 10 11 10 11 12 13 14 15 14 14 16 17 14 12 10 13 13 13 12 12 12 11 12 13 13 12 13 13 12 11 11 11 11 11 12 10 8 8 9 8 8 8 8 7 7 7
10 10 10 12 21 20 9 15 15 21 25 26 29 29 29 29 28 26 25 26 25 23 21 22 25 27 28 27 25 18 12 15 15 17 20 19 12 14 15 14 11 9 9 10 10 9 9 11 11 9 9 11 6 8 11 12 12 13 12 12 11 12 12 13 13 12 13 13 14 13 12 12 11 11 11 10 10 8 8 9 9 9 8 8 7 6 6
6 6 8 15 16 2 3 9 13 14 16 19 20 24 25 28 28 29 28 25 23 23 26 27 27 27 28 24 16 15 18 17 14 17 18 18 18 16 14 13 12 11 10 10 10 11 9 8 9 10 11 9 11 11 11 13 12 12 12 12 12 12 13 13 14 14 16 15 14 14 14 13 13 13 12 12 11 10 9 7 6 6 6 6 7 7 7
15 10 14 21 12 12 4 5 6 11 16 13 18 22 25 28 27 25 25 24 23 23 25 26 26 25 20 16 16 17 20 20 20 19 17 15 14 15 15 13 13 13 10 8 10 8 7 9 9 10 8 10 11 11 12 10 12 12 12 13 14 15 15 15 15 15 16 16 16 15 15 15 14 13 11 10 9 8 9 9 9 8 7 7 6 6 6
14 15 11 12 10 14 14 13 12 19 22 23 22 18 24 9 15 16 21 22 25 28 26 25 22 16 16 17 17 18 21 21 19 20 12 7 12 14 13 12 12 11 10 7 7 8 7 7 9 8 10 12 12 12 12 11 12 13 14 16 16 15 16 16 16 16 16 17 18 16 16 16 15 10 8 7 9 8 9 10 9 8 7 6 6 6 7
13 16 15 16 15 16 6 16 17 19 18 18 18 14 22 4 10 12 20 24 24 24 22 20 15 13 14 16 15 15 18 18 15 11 7 10 10 11 11 12 13 12 10 8 6 5 5 7 6 7 10 12 12 12 12 13 13 14 16 16 15 17 17 15 15 15 15 16 17 17 15 11 11 11 11 10 9 7 6 7 8 7 6 6 5 4 5
8 12 14 16 8 13 9 11 12 18 19 15 4 17 14 10 16 18 21 23 20 17 17 17 14 12 14 14 16 15 13 11 9 8 9 10 10 9 9 8 9 9 5 3 3 5 7 9 5 8 9 11 12 13 12 12 14 15 17 19 14 11 12 13 13 14 13 16 16 17 16 15 8 8 8 9 9 9 7 6 7 7 6 6 6 5 4
18 23 18 13 9 5 3 8 9 10 8 4 12 22 8 2 10 14 16 17 16 15 15 11 11 6 10 13 13 11 10 10 11 8 6 7 7 7 8 10 7 5 5 7 9 9 6 4 7 7 9 9 11 11 12 12 16 19 12 10 12 13 12 13 13 14 13 16 17 15 17 11 9 8 7 9 9 8 9 7 7 7 8 6 5 4 4
14 13 15 17 12 4 5 9 10 3 3 7 13 7 14 13 17 17 14 14 15 14 13 12 10 12 13 12 11 13 13 11 9 9 9 7 7 6 4 3 0 1 1 2 4 2 1 6 7 8 9 10 9 9 10 15 19 8 10 12 12 13 15 14 14 14 15 14 15 16 16 16 11 9 5 6 7 8 6 8 9 8 7 5 4 3 4
11 11 12 9 12 3 17 19 7 3 5 4 10 10 9 11 12 15 15 13 12 15 15 15 14 14 13 11 11 12 13 11 11 10 10 10 8 7 6 6 3 1 3 4 4 4 4 6 7 8 9 9 8 8 14 16 7 10 10 12 13 14 14 15 15 15 15 17 15 13 16 16 11 13 12 11 8 7 9 8 8 8 7 5 5 4 4
6 5 7 3 5 5 9 12 4 9 8 13 12 11 10 10 10 12 12 13 14 14 15 16 17 16 14 15 14 14 13 12 12 12 11 10 9 8 6 4 2 1 3 5 6 4 0 1 3 6 12 12 11 13 17 6 9 9 11 12 13 14 14 14 15 14 14 14 14 14 18 17 9 12 10 9 8 7 7 8 8 7 6 6 5 5 4
5 5 10 13 13 7 3 2 5 8 11 8 5 8 7 9 11 10 8 12 14 15 16 18 17 17 18 18 17 15 13 12 11 12 12 10 9 9 9 9 3 3 6 8 5 4 1 3 4 7 7 12 12 16 9 10 11 13 13 14 14 15 15 15 15 13 13 12 13 14 15 17 13 10 11 10 9 7 8 8 7 7 7 7 7 6 5
8 11 12 14 7 12 19 16 8 10 13 6 3 4 8 10 6 7 11 12 12 13 13 14 16 17 19 22 22 21 19 17 15 12 10 9 8 8 8 7 3 4 3 2 3 6 5 5 7 6 7 7 13 12 7 10 11 13 15 15 15 15 14 14 15 15 16 13 12 11 11 13 6 8 11 10 9 9 7 7 8 8 8 8 6 6 5
14 10 3 13 17 21 23 26 26 14 4 6 7 6 5 8 12 14 11 12 15 16 16 14 14 17 19 20 22 21 19 18 16 15 13 12 8 7 8 8 5 4 5 6 8 8 9 6 7 7 8 10 8 4 11 10 12 14 15 16 15 14 15 14 14 16 18 14 12 10 8 7 5 6 6 8 9 9 9 8 8 7 7 7 7 7 6
13 16 16 19 17 22 20 16 14 14 8 4 6 6 9 11 12 13 15 15 15 13 14 15 16 16 17 18 19 19 18 17 16 15 14 13 10 8 6 6 5 5 6 8 9 8 10 9 8 8 9 10 7 8 9 12 13 14 16 17 18 17 17 15 15 13 8 14 14 10 8 8 9 7 4 6 8 9 11 11 11 10 8 8 8 8 7
16 18 18 14 15 12 12 10 6 11 16 17 17 14 14 14 14 14 15 12 14 15 16 15 15 15 16 16 16 17 17 17 15 15 14 12 11 10 9 5 6 8 8 9 10 10 12 8 8 9 11 9 8 11 12 12 15 16 15 14 13 14 14 13 13 8 5 8 8 10 11 7 6 6 9 8 8 7 5 5 8 10 10 8 7 6 6
14 11 11 13 15 15 19 21 18 16 13 15 16 17 15 12 11 11 13 12 11 11 13 14 14 14 15 15 14 15 15 14 15 15 15 13 12 12 10 7 6 9 9 9 10 11 12 6 9 11 12 11 9 10 12 13 15 16 15 14 14 15 14 13 12 14 10 8 7 8 10 11 10 9 7 10 7 9 9 12 14 13 12 8 7 6 6
14 14 18 17 21 22 18 19 19 18 16 13 13 12 12 13 12 11 13 15 16 15 14 13 15 15 15 17 16 17 15 16 15 15 16 15 13 13 11 11 9 8 10 9 10 11 10 7 10 11 11 11 10 12 14 15 17 17 17 15 15 14 14 14 16 12 9 8 8 7 8 9 11 15 11 9 12 14 13 15 15 16 14 14 15 13 8
23 20 17 12 13 16 18 17 15 13 10 10 11 12 14 15 15 14 14 15 17 18 16 14 13 15 18 17 16 17 18 17 16 15 14 13 12 13 11 10 10 11 9 8 10 14 12 9 11 10 10 11 12 13 14 15 16 16 19 18 17 17 17 15 15 10 9 10 11 10 8 9 10 12 11 14 10 13 16 15 15 15 14 14 14 13 14
17 15 16 11 11 13 11 12 9 7 10 14 13 13 13 15 17 17 18 16 14 15 17 19 17 13 14 16 16 16 16 18 17 17 17 16 16 14 13 13 12 10 11 11 11 11 11 10 10 10 11 13 12 12 14 16 17 18 19 18 18 16 16 13 9 11 9 10 10 10 12 12 10 13 11 13 13 12 11 15 15 15 15 14 14 12 12
17 12 7 7 8 10 9 10 7 9 14 14 14 13 16 15 16 17 17 16 16 15 16 15 17 17 15 15 15 15 16 17 19 19 16 16 16 16 16 15 14 12 11 10 11 12 12 13 14 13 14 14 14 16 16 17 19 20 20 21 21 18 17 13 13 12 11 10 10 10 9 14 14 11 13 13 16 17 17 12 10 11 13 14 14 14 13
4 8 8 11 10 11 7 7 10 13 11 9 12 14 13 13 13 12 14 15 15 14 14 15 15 15 15 14 16 15 15 16 16 17 15 16 17 17 15 14 13 13 14 13 12 13 15 13 12 13 16 16 16 17 18 19 19 18 17 18 14 16 21 17 7 11 10 11 9 11 14 15 14 14 13 12 13 13 13 15 16 14 10 8 9 12 8
5 6 8 2 9 10 13 15 11 9 11 12 11 11 12 14 14 14 14 14 14 13 14 15 15 15 17 17 17 18 17 16 17 17 18 19 17 16 16 16 16 16 15 14 14 12 11 10 12 14 16 15 14 15 17 19 20 19 17 17 16 15 16 19 11 8 9 8 13 17 14 9 13 12 12 13 12 10 9 10 10 10 7 5 3 3 12
8 8 6 4 7 11 12 10 11 13 13 11 10 10 10 13 16 16 16 16 15 15 15 15 13 13 14 17 16 18 18 18 19 19 18 18 17 17 18 18 17 17 17 16 15 12 9 8 11 13 15 9 10 13 15 17 17 16 16 17 16 16 14 11 9 10 14 16 16 15 15 13 12 12 11 10 9 10 9 10 9 8 8 7 4 1 5
9 8 9 9 10 7 7 10 12 14 15 15 15 15 14 12 14 17 18 17 16 18 18 17 15 16 15 16 17 16 18 19 20 19 19 19 19 18 18 18 18 17 15 15 15 12 11 11 12 14 14 9 14 15 16 16 15 15 16 19 15 13 14 16 11 15 9 11 13 15 13 12 11 11 11 10 10 10 10 9 9 9 8 7 7 7 7
13 12 11 10 7 6 9 11 11 12 13 14 16 17 18 14 13 15 17 17 17 18 20 19 19 19 19 17 16 16 15 17 16 19 18 19 17 19 18 17 17 17 16 17 16 14 12 13 14 15 12 12 15 16 17 16 14 13 12 12 12 17 18 23 21 20 18 15 14 14 13 12 11 11 11 11 10 10 9 9 9 8 7 7 7 7 6
13 16 12 3 4 9 11 9 9 11 13 13 16 19 18 16 18 20 19 18 18 19 21 22 21 19 17 16 16 17 18 16 19 18 21 19 21 17 19 18 20 21 22 21 18 14 12 13 14 16 9 13 15 16 17 16 14 15 15 15 15 14 17 26 17 17 14 13 14 14 14 14 11 11 11 11 11 11 10 10 9 8 8 8 7 6 6
11 16 17 18 19 19 19 17 13 16 15 17 17 16 16 15 14 14 15 16 16 18 17 19 19 18 18 16 20 18 19 18 19 18 23 19 20 18 16 16 16 18 19 19 19 16 14 16 18 10 12 15 15 17 18 18 16 14 13 14 14 13 15 17 14 14 11 11 13 15 13 13 13 11 11 10 10 9 9 9 9 8 8 7 7 6 6
7 5 10 11 7 11 16 21 18 16 16 15 15 15 16 17 16 16 16 16 17 20 18 17 16 18 17 20 20 20 18 20 21 18 16 18 17 20 18 18 19 22 22 20 18 15 11 14 8 9 13 14 16 16 16 17 14 14 15 16 15 14 15 13 14 13 12 12 12 13 13 11 10 10 10 9 10 9 9 9 8 8 8 7 5 6 5
8 12 12 12 11 10 11 13 16 17 17 20 22 20 18 16 16 17 19 20 20 20 18 19 18 19 18 19 17 19 18 18 19 21 21 21 21 21 22 20 23 21 22 20 17 14 12 10 9 10 13 14 16 16 17 17 16 14 16 16 15 14 13 12 13 13 14 14 14 16 12 11 9 8 8 9 9 8 9 8 8 8 8 8 6 4 2
11 11 11 10 10 10 12 13 14 17 18 18 19 20 21 20 21 21 22 21 18 17 19 20 19 19 19 19 19 18 20 19 19 20 23 20 20 14 19 19 24 22 22 22 17 10 5 7 13 16 14 14 15 15 18 17 16 16 16 15 14 13 13 13 13 11 11 13 13 12 10 11 11 10 9 9 8 8 8 8 8 7 7 7 7 6 3
8 12 13 13 12 11 13 13 13 15 18 19 19 20 22 22 20 19 19 19 19 18 18 19 21 20 21 21 19 18 18 17 17 16 21 18 19 16 21 21 23 23 21 20 13 9 9 12 17 23 16 14 15 16 18 22 16 15 15 15 15 15 15 14 13 13 13 11 11 11 12 12 12 10 8 9 9 8 8 8 7 6 6 6 6 6 5
12 11 13 14 14 15 15 14 13 16 18 22 21 18 19 21 21 19 20 19 20 19 19 19 21 21 21 18 18 18 21 19 20 19 21 20 19 19 21 19 18 17 16 16 4 12 9 16 22 17 13 13 15 16 20 24 21 18 15 15 15 15 15 15 16 13 13 14 11 10 11 13 15 13 8 8 8 8 7 7 7 7 7 6 5 5 6
15 12 11 12 13 14 15 15 13 14 16 20 22 20 17 18 21 19 19 19 19 19 20 19 18 19 21 21 23 19 17 15 17 20 20 21 21 19 22 15 7 7 6 4 10 8 13 16 14 13 12 13 16 17 21 24 24 16 15 15 16 15 15 15 17 14 13 12 11 11 10 10 10 9 8 8 7 7 7 7 8 7 7 6 6 6 5
15 15 16 16 15 14 15 16 16 15 15 14 17 20 19 19 18 18 19 20 18 17 17 18 20 19 20 20 20 19 18 18 15 14 15 15 16 17 19 6 9 9 1 7 7 8 13 18 14 10 11 13 14 14 15 22 20 14 15 14 14 14 15 15 16 19 15 12 12 11 10 10 9 8 8 8 7 7 7 7 7 6 6 6 5 5 6
16 16 17 16 17 15 16 17 18 17 16 16 16 17 17 17 19 20 20 20 17 16 18 18 18 19 18 18 18 18 16 10 9 10 11 10 10 10 9 7 9 8 5 5 6 9 14 12 10 11 11 13 12 15 15 20 16 13 14 13 14 14 16 19 20 16 13 13 11 11 11 10 10 9 8 8 7 7 7 7 7 6 6 7 6 5 4
17 17 17 18 17 16 17 17 17 18 18 16 16 17 18 18 18 19 19 17 16 16 17 18 20 19 16 15 14 14 12 9 9 8 9 8 8 7 4 4 6 5 5 9 10 11 10 10 9 10 12 12 12 18 18 14 12 12 13 14 15 16 16 15 13 12 10 9 9 9 9 9 9 9 8 7 8 7 7 6 6 6 5 5 6 5 6
17 19 19 18 17 17 17 17 17 18 19 18 16 16 16 17 17 17 14 13 14 14 15 15 16 16 14 12 13 11 9 10 10 9 7 7 10 10 5 3 5 4 7 7 8 7 7 7 8 8 12 14 15 22 19 13 12 14 15 15 14 15 14 13 12 11 11 11 9 9 9 9 9 9 9 8 7 6 6 6 6 6 5 5 5 5 3
19 17 17 17 18 18 18 17 17 17 18 18 16 16 17 17 15 14 13 13 14 14 13 13 13 13 13 11 9 8 7 8 8 7 5 6 8 11 12 7 6 7 9 6 6 7 7 7 8 15 20 23 24 21 14 13 13 15 16 14 13 13 12 12 11 10 10 9 10 9 8 8 8 8 8 8 8 7 5 6 5 6 6 5 5 4 3
18 17 18 19 20 19 17 15 17 18 17 17 17 16 16 15 15 14 14 13 12 12 13 12 12 12 11 11 7 6 8 6 6 6 5 6 6 7 9 8 9 8 10 11 9 8 9 10 15 21 20 22 20 19 14 14 14 15 14 12 12 11 11 11 10 10 9 9 8 7 7 8 7 7 7 6 6 7 7 6 6 6 6 6 5 5 5
18 17 18 20 19 17 16 17 17 16 16 16 15 14 13 14 15 14 12 12 11 10 10 11 11 12 12 11 9 5 6 7 8 8 7 6 5 5 7 9 9 10 16 16 9 11 12 19 21 20 20 20 19 15 13 12 12 12 11 12 11 10 9 10 10 9 9 9 9 8 7 7 7 6 6 7 6 7 6 6 6 5 5 5 5 5 4
18 18 17 17 18 19 19 16 14 14 14 13 12 11 13 14 15 12 11 16 14 12 9 10 11 11 10 9 7 6 6 6 7 8 7 7 9 10 12 15 15 17 14 11 10 11 11 14 17 21 20 20 18 13 14 15 16 12 11 11 11 10 9 9 9 9 8 8 7 7 7 6 7 7 6 7 7 6 6 7 6 5 6 5 4 4 3
17 18 19 21 21 20 16 14 13 11 10 11 11 12 12 14 15 11 12 12 13 12 10 9 9 10 10 10 8 6 5 5 6 9 9 9 10 10 10 10 13 20 20 18 19 18 23 23 24 24 23 20 15 13 12 11 10 11 10 10 9 9 8 7 8 8 8 8 9 7 6 7 8 7 6 6 6 6 5 6 6 5 5 5 5 4 4
20 20 18 16 15 14 14 13 11 10 9 11 12 9 12 13 12 10 11 12 13 11 10 10 12 11 11 11 11 9 9 8 7 8 7 8 9 10 11 14 19 18 14 13 13 12 18 22 21 21 20 15 10 9 9 9 10 10 9 9 9 9 7 8 8 7 7 8 7 7 7 7 7 6 6 6 5 6 5 6 6 5 5 4 3 4 2
14 12 11 10 9 9 10 9 9 9 10 10 9 9 10 10 9 9 10 10 10 10 9 9 9 9 9 9 9 10 10 10 11 11 10 11 11 10 11 11 13 16 15 12 13 13 16 21 19 17 13 11 11 11 11 11 10 9 8 10 9 7 8 9 8 9 8 7 7 7 7 7 6 7 6 6 6 6 6 5 4 5 5 4 4 3 3
11 10 10 9 8 9 10 9 8 9 8 9 8 9 9 9 9 9 9 11 9 9 9 7 8 9 9 9 9 9 10 10 11 12 10 11 12 13 13 12 13 13 14 14 12 11 10 7 8 11 11 11 10 11 10 9 8 10 9 7 8 7 7 7 6 7 6 6 7 7 7 6 7 7 6 6 6 6 5 5 4 3 3 3 4 3 3
11 10 8 8 8 8 8 7 8 7 7 8 7 8 8 8 8 8 9 13 9 7 8 7 8 9 9 8 9 10 10 11 10 11 11 9 9 9 11 14 12 13 13 10 9 9 8 10 12 14 14 10 8 8 11 14 10 8 8 8 8 7 7 6 5 7 7 7 7 7 7 7 6 7 6 5 5 5 5 4 3 4 4 3 3 3 2
Wind_Direction
229 232 241 243 249 248 250 248 249 254 253 244 244 244 250 247 245 259 268 270 271 266 261 269 272 272 277 285 284 278 279 276 270 237 227 235 239 240 233 230 228 231 231 222 223 223 220 216 212 210 208 206 201 205 200 189 190 194 186 183 183 183 185 189 190 186 175 170 168 163 163 159 157 158 156 151 147 145 144 143 142 146 147 148 157 159 169
232 235 236 238 244 247 250 247 245 246 250 251 249 253 250 245 250 256 260 259 261 266 271 265 265 273 281 286 286 284 281 279 278 260 229 240 232 229 227 229 230 230 230 229 228 226 224 217 215 211 206 204 201 199 197 192 190 188 175 187 185 186 189 191 182 172 169 167 168 165 163 164 162 156 153 149 144 142 144 144 141 144 145 146 155 164 172
240 237 240 237 242 241 250 250 251 249 252 253 248 247 250 256 257 253 252 254 262 264 261 261 267 273 284 284 279 277 277 280 277 275 241 245 246 222 228 233 234 235 233 232 233 230 227 220 216 211 207 205 202 201 195 189 188 186 182 184 188 187 190 182 172 167 168 171 166 170 168 160 157 154 151 147 143 141 141 143 144 142 144 149 159 171 182
237 227 237 236 234 233 237 244 252 252 246 245 242 241 235 235 241 244 247 251 252 251 250 263 269 270 269 269 270 271 274 272 273 274 267 246 254 257 247 235 227 231 228 230 232 231 228 222 216 211 207 202 194 200 193 191 187 176 181 185 187 188 183 173 170 171 172 167 167 167 161 162 157 150 143 143 144 144 143 141 143 139 148 161 163 177 186
242 228 230 237 239 240 236 227 235 242 242 238 244 246 250 246 243 245 243 242 241 249 253 256 261 263 259 258 259 264 267 271 273 275 274 254 234 250 256 255 229 227 227 225 225 227 225 220 215 212 203 195 199 199 191 190 166 175 183 184 184 181 176 173 173 171 166 164 165 162 163 155 150 146 146 147 146 149 153 147 142 151 160 163 174 179 191
245 223 242 240 241 226 226 203 219 225 238 241 242 243 244 245 236 237 235 249 254 255 250 249 253 254 255 254 255 253 260 273 277 278 272 262 235 243 253 256 239 226 227 231 228 222 218 216 213 210 195 196 204 194 180 160 170 176 176 181 178 177 173 174 170 166 162 161 162 160 152 148 148 149 150 151 144 139 134 142 150 153 162 167 172 181 191
244 238 245 247 233 241 224 221 220 230 240 243 245 245 242 246 251 252 249 249 250 252 253 251 250 252 257 260 264 274 268 256 259 269 274 270 253 256 265 269 263 245 228 225 231 232 225 218 217 204 198 203 167 143 158 166 170 169 177 173 175 173 172 171 165 162 161 162 159 155 153 150 149 150 149 142 143 145 149 153 156 159 162 166 177 176 185
259 232 217 246 248 106 288 207 216 220 237 241 250 254 248 247 244 246 248 245 245 245 249 250 253 254 257 265 273 274 265 257 255 254 259 265 268 266 264 268 271 263 244 232 227 229 221 207 210 194 196 173 162 171 158 165 166 170 169 171 174 171 174 173 169 168 165 164 159 156 155 155 156 155 153 156 151 149 147 143 140 143 152 158 168 176 185
239 222 224 240 272 276 154 161 207 198 221 219 220 244 239 230 237 237 246 248 249 249 246 247 251 257 266 272 269 261 263 263 255 251 250 254 265 270 272 268 264 262 253 231 232 226 208 198 191 195 171 162 160 150 159 164 164 165 166 175 181 179 177 174 173 170 167 162 160 160 159 158 160 158 152 149 146 142 141 147 151 156 158 161 166 170 176
205 236 237 251 226 237 233 213 207 214 224 228 232 235 260 204 239 229 241 244 245 246 248 248 252 260 267 263 263 258 259 258 262 262 265 251 248 253 257 265 267 265 260 239 235 217 211 197 193 172 161 157 154 157 163 160 162 172 174 187 184 178 180 177 173 170 169 164 162 161 162 165 163 154 140 131 142 150 147 147 152 155 154 149 164 171 182
218 230 233 232 239 246 192 225 214 222 225 230 242 253 260 151 216 203 228 235 235 240 246 251 250 248 247 252 256 260 259 263 264 271 259 239 237 240 241 243 254 259 256 243 216 196 183 200 198 162 154 151 151 167 166 169 170 174 190 188 181 184 181 172 169 168 167 165 163 162 163 151 156 143 151 150 146 140 137 132 138 144 140 149 158 169 184
222 249 237 244 219 257 210 218 212 224 224 231 252 263 269 163 217 215 226 234 239 244 245 245 243 241 256 252 253 253 263 268 268 254 248 251 246 239 239 249 248 252 239 154 170 186 203 216 148 151 152 159 167 168 176 166 178 190 195 193 180 163 158 163 163 164 166 165 164 163 157 127 129 139 136 135 144 145 140 133 137 134 139 148 160 172 176
225 223 243 249 262 263 216 215 220 222 219 204 238 246 293 286 232 248 247 251 257 268 281 291 291 280 282 296 301 302 294 295 291 281 255 246 244 240 244 250 240 210 193 190 206 212 217 149 150 155 157 159 178 176 167 176 195 202 184 151 155 161 157 157 161 163 163 166 162 153 125 140 134 130 144 143 140 142 137 135 130 135 151 157 152 162 179
231 231 242 242 258 276 304 269 239 178 62 253 247 346 359 15 22 10 13 10 13 15 7 358 340 329 329 329 337 335 327 317 316 317 320 321 305 287 300 333 237 195 152 265 266 279 136 151 155 161 162 177 179 169 172 197 207 159 148 158 150 152 158 159 159 159 160 160 157 151 148 130 132 129 117 119 125 123 117 131 139 139 139 138 144 169 195
247 235 249 237 226 33 23 345 318 21 264 16 340 312 347 18 27 10 2 6 0 8 350 339 333 332 337 341 346 342 336 338 336 336 334 332 318 301 301 308 340 71 282 268 272 241 182 169 167 169 166 179 181 179 197 209 153 148 151 149 151 151 153 155 158 158 158 155 153 153 146 137 133 142 145 141 133 141 138 134 135 132 136 144 159 179 192
332 297 250 254 65 347 5 30 341 336 314 321 334 5 331 357 17 9 352 347 350 353 348 337 329 328 333 334 337 335 332 331 328 328 327 325 327 321 305 284 294 169 246 273 260 282 3 123 176 175 179 187 188 191 213 149 144 142 146 147 147 150 153 155 153 155 155 153 151 153 150 137 135 133 144 142 139 143 130 125 132 141 151 156 167 174 181
301 274 302 299 310 335 285 80 302 291 310 303 313 344 350 348 347 354 349 338 335 337 340 332 330 324 327 325 322 324 318 318 320 319 319 316 316 316 311 301 267 201 225 240 264 283 207 176 197 205 203 198 197 210 195 142 153 151 147 149 151 156 156 155 154 152 150 153 154 155 160 150 140 140 139 144 134 138 129 141 146 144 155 163 166 169 177
265 274 263 275 317 314 310 299 274 297 308 302 304 348 332 334 318 340 329 320 320 317 321 315 315 312 312 313 312 311 311 309 307 305 304 304 303 304 301 293 252 213 222 235 243 249 240 202 214 211 219 206 207 217 138 153 151 151 149 152 157 158 156 155 156 153 150 151 154 147 144 150 123 142 145 150 139 142 145 147 151 152 157 157 158 171 174
316 278 334 301 309 309 308 307 310 320 277 303 333 315 318 313 317 314 315 305 302 300 293 290 287 293 297 298 298 297 296 296 297 298 297 293 282 278 284 271 225 195 198 222 244 243 249 217 206 211 210 222 226 139 165 154 154 150 155 156 156 157 160 160 156 160 157 158 157 154 144 138 128 124 137 136 134 138 152 151 147 149 146 154 164 171 167
270 282 293 296 300 285 281 286 303 320 330 284 296 305 306 311 310 304 299 304 300 295 294 294 288 286 287 287 289 291 292 293 295 295 293 293 295 280 260 253 211 217 215 232 242 238 242 233 195 209 212 218 195 160 160 159 153 155 160 167 166 169 166 163 167 167 155 152 150 146 152 146 141 140 135 138 136 153 161 162 157 157 156 164 170 168 167
291 287 283 276 282 294 296 297 323 319 310 312 311 313 313 309 309 312 309 304 301 301 295 291 291 289 286 284 284 286 290 292 293 292 292 292 288 288 289 257 210 222 231 233 236 232 235 220 178 199 213 210 180 167 166 162 160 163 170 167 163 161 163 164 172 174 148 147 146 145 143 129 117 140 157 150 146 131 145 137 155 154 160 162 160 160 156
282 284 313 348 326 308 305 302 306 304 308 308 309 314 318 323 322 325 324 326 328 327 316 311 304 299 298 299 301 296 294 292 294 296 297 295 292 289 280 269 239 241 236 233 237 234 240 200 185 202 209 201 179 172 164 167 165 169 168 166 168 170 170 171 166 168 167 153 146 142 141 136 128 114 121 137 141 146 147 158 157 155 152 152 153 146 154
290 307 306 302 289 286 287 299 310 313 313 319 334 339 331 330 330 333 335 330 325 322 321 320 319 313 310 307 308 305 301 299 297 297 297 298 295 290 285 282 274 251 244 235 238 246 242 199 204 207 205 193 179 176 174 174 175 174 166 171 176 173 172 178 177 169 153 147 152 141 136 129 129 132 134 145 147 146 148 155 156 155 152 157 161 165 163
280 283 282 287 287 290 302 308 313 317 346 9 344 333 328 324 326 328 326 323 317 314 314 310 306 305 304 304 304 301 301 299 300 299 298 296 293 292 292 282 276 273 261 239 233 238 239 215 213 210 203 197 188 182 179 178 178 176 177 175 178 182 181 175 168 162 158 149 147 141 139 135 128 122 139 136 141 153 155 154 157 159 157 161 165 171 174
277 286 291 300 303 303 304 305 322 0 356 343 336 325 323 326 323 325 319 318 316 313 310 308 307 300 297 296 297 298 300 301 302 302 300 299 296 294 290 288 281 270 261 246 237 235 235 219 210 205 205 208 190 180 180 180 181 183 186 186 184 180 176 169 155 151 147 145 152 152 143 140 135 146 143 146 141 145 155 160 159 156 153 158 162 166 170
277 298 334 323 293 293 312 338 344 357 338 327 320 323 325 324 321 319 316 312 311 309 302 298 300 302 299 297 295 294 293 293 296 296 297 293 292 290 287 282 279 273 260 249 242 234 228 214 206 200 206 206 188 187 181 184 187 191 190 192 186 176 176 166 152 157 158 159 151 152 141 145 147 140 149 152 149 144 136 144 154 153 152 153 157 157 162
347 33 5 344 322 313 343 348 308 315 316 325 320 316 312 311 315 312 306 302 296 295 297 298 297 299 301 297 294 290 289 290 290 289 286 285 283 282 283 284 281 277 273 264 251 239 232 216 203 202 211 208 192 184 182 185 187 191 193 191 186 184 173 164 137 155 153 159 146 142 149 152 154 154 151 151 149 151 157 160 158 152 151 143 145 150 141
66 32 55 322 294 304 304 304 302 318 321 317 318 315 317 316 312 306 302 300 302 308 308 304 304 309 309 306 307 306 305 301 296 295 293 290 289 287 288 287 286 285 282 275 267 255 233 211 206 208 218 211 185 184 183 184 186 189 186 181 177 173 174 173 166 148 152 138 154 146 152 130 148 148 149 151 154 156 154 152 148 141 135 137 125 137 151
356 347 344 301 278 286 282 297 321 316 310 309 310 307 312 318 315 312 308 308 308 307 300 301 305 305 303 304 310 305 303 299 295 292 289 289 290 289 288 286 284 282 279 278 272 260 234 213 212 216 228 199 171 181 182 184 187 186 181 179 177 175 174 169 165 152 155 155 158 155 149 147 144 142 145 145 140 143 148 151 146 140 141 134 117 145 117
330 327 318 311 297 283 333 325 313 314 314 319 324 318 317 320 313 309 308 310 312 309 304 306 309 303 304 303 300 298 298 298 297 296 293 290 288 285 284 283 283 278 276 271 265 251 226 216 215 219 223 173 173 178 178 183 188 187 185 184 182 168 172 168 129 155 129 147 154 148 143 141 139 141 142 143 143 145 145 144 144 143 145 155 157 159 153
319 314 306 289 291 345 327 306 307 304 310 315 318 312 310 313 303 299 303 308 309 305 306 306 304 303 301 299 299 298 293 290 289 290 288 287 286 285 283 284 281 278 271 267 259 247 230 221 218 221 210 170 170 173 174 179 178 176 177 180 181 169 157 157 161 156 153 153 151 149 147 141 142 140 142 140 140 140 143 142 142 143 146 147 148 155 155
318 317 318 333 353 319 310 305 306 306 309 313 313 311 313 319 314 311 309 309 306 306 305 306 303 302 301 300 298 294 293 291 290 286 283 280 281 281 282 282 280 277 276 273 268 250 227 225 224 225 178 163 171 170 172 174 172 174 179 172 167 166 166 159 157 159 158 153 148 147 147 142 143 141 139 145 148 148 146 145 146 149 150 153 155 156 160
343 336 333 336 339 332 325 318 322 316 316 312 305 299 300 298 296 293 292 295 300 299 299 297 297 297 299 299 296 292 291 292 288 280 279 276 277 276 277 279 274 274 271 267 262 254 225 220 226 201 162 171 167 170 173 173 174 171 166 162 164 160 160 162 153 151 141 142 146 146 138 138 137 144 148 144 141 140 139 142 143 146 150 152 150 158 166
316 276 278 297 297 301 307 305 309 308 303 296 288 290 293 297 299 297 295 295 291 291 294 294 294 294 293 291 288 289 288 293 291 288 286 284 282 284 283 282 279 277 275 272 269 259 238 229 207 154 167 162 166 166 170 169 168 164 162 159 158 157 158 156 151 146 141 139 141 135 135 137 139 139 140 141 142 141 143 143 145 146 142 143 149 161 201
292 290 288 285 290 285 283 285 291 296 299 299 300 298 294 291 293 293 295 295 293 294 294 293 289 288 286 285 284 283 280 274 277 281 282 283 283 284 287 285 280 273 270 265 257 252 232 211 172 156 151 157 159 165 167 168 163 159 159 156 153 153 151 145 147 149 144 142 138 130 134 140 137 129 129 134 137 138 138 141 144 145 142 143 148 141 194
307 294 291 288 283 282 279 279 280 281 283 284 285 288 292 293 296 296 296 294 294 293 290 290 288 286 283 282 282 279 278 278 278 278 279 277 279 279 277 275 274 271 267 267 250 226 182 148 148 147 149 155 161 163 165 162 158 155 154 149 147 144 142 142 141 138 138 139 142 142 138 133 129 132 134 129 132 134 138 139 142 141 142 141 143 144 160
298 297 294 294 289 284 281 278 278 282 282 283 284 289 289 291 290 290 290 292 294 292 290 289 288 283 281 283 279 275 274 275 275 275 276 277 279 279 275 271 269 266 267 268 252 140 158 150 152 149 149 158 160 163 161 156 151 150 147 145 144 143 144 142 141 133 136 137 133 131 128 128 126 128 131 133 136 134 136 136 135 135 135 137 136 141 137
301 294 293 292 294 291 286 281 280 279 281 282 281 280 285 290 292 292 291 292 292 291 288 284 282 282 281 280 279 280 284 281 275 271 271 272 271 274 272 270 267 266 257 256 174 142 148 147 150 149 153 158 160 160 158 155 147 148 148 147 146 145 143 141 139 137 135 115 128 127 134 134 118 118 132 131 130 134 137 134 138 139 139 138 139 143 149
302 297 286 287 286 286 287 289 287 281 280 283 288 289 289 289 290 292 289 289 288 285 284 284 286 289 292 291 286 283 280 288 297 300 299 297 296 291 284 286 308 309 309 76 130 138 145 152 153 153 152 154 151 153 153 148 146 146 145 144 145 143 143 140 141 137 137 133 132 131 130 134 133 134 132 134 132 132 131 136 140 140 142 145 145 156 164
304 304 302 304 299 299 299 296 294 289 286 283 288 291 296 294 293 293 293 292 290 291 295 301 296 290 288 287 291 295 301 304 310 317 317 310 297 286 278 293 8 327 70 117 111 131 144 143 142 138 145 144 147 148 150 148 146 142 144 145 144 141 140 139 133 118 128 134 132 131 130 134 132 132 129 131 132 135 136 138 137 139 138 134 146 158 158
302 304 304 305 302 304 301 300 299 296 294 292 290 288 290 291 295 296 294 293 294 299 295 293 292 291 291 296 299 299 301 316 329 319 315 307 319 323 319 324 336 336 360 33 86 118 134 138 136 138 134 141 142 144 142 146 141 142 142 142 139 139 132 127 127 136 139 139 138 139 138 135 131 129 132 132 135 132 138 136 141 139 140 147 158 158 145
305 307 305 305 304 303 301 297 296 297 296 295 295 296 294 293 294 291 289 293 302 303 299 297 295 299 309 314 311 308 310 321 322 329 341 344 331 315 335 320 338 340 77 95 109 117 124 125 127 131 134 135 133 136 135 135 134 134 133 135 132 131 128 130 126 119 108 116 122 126 127 130 129 130 133 132 133 139 140 137 130 131 138 149 154 150 140
311 310 309 306 302 302 300 299 298 298 299 301 301 299 300 299 293 288 294 305 304 303 306 304 307 308 310 314 318 318 326 330 330 332 344 358 16 10 6 357 7 43 78 93 97 111 105 109 114 117 122 124 127 126 123 124 129 127 127 121 120 115 106 119 123 122 121 120 110 118 130 132 134 135 136 137 137 136 138 138 136 143 148 150 140 129 133
308 305 303 303 302 301 301 300 301 303 302 303 305 305 303 298 296 303 307 303 307 311 311 311 313 317 321 322 331 333 332 334 335 331 344 358 23 27 20 23 32 46 50 60 62 69 77 85 90 110 112 119 122 121 120 122 124 124 113 120 121 120 117 116 117 118 119 121 126 127 127 129 131 133 134 137 138 136 128 129 136 141 141 131 122 126 156
306 304 303 302 302 302 303 306 307 308 306 305 308 309 308 308 311 309 307 307 310 322 325 324 324 327 329 329 335 352 329 326 329 337 348 9 22 29 8 20 33 45 50 60 60 64 72 86 103 108 115 116 112 111 115 117 118 105 92 109 111 111 109 112 113 116 116 117 113 114 119 124 126 127 131 128 130 133 136 136 134 134 133 128 133 152 180
304 304 302 300 300 306 308 307 306 305 307 309 309 310 317 317 316 316 312 318 325 331 337 334 331 331 332 331 327 344 350 1 19 17 28 24 43 39 43 51 53 57 62 61 63 70 79 90 97 101 104 104 104 105 111 112 101 89 100 106 106 107 103 109 108 109 112 113 115 115 117 117 117 120 123 128 126 120 119 114 116 114 120 127 144 162 182
303 300 297 298 305 308 308 307 309 310 311 315 317 318 321 321 322 318 342 344 338 336 343 343 337 335 338 337 337 344 353 7 37 27 27 40 52 55 52 54 55 59 59 66 72 77 84 85 88 89 91 94 96 101 104 96 73 86 98 100 103 102 98 102 105 106 105 105 103 100 97 101 105 107 110 109 109 113 119 119 118 118 115 121 140 158 169
300 299 304 311 312 308 309 316 314 312 321 323 321 321 324 327 324 339 351 343 345 350 358 353 351 350 353 0 359 9 1 341 35 40 28 44 52 61 63 71 77 80 75 72 71 75 80 86 89 92 93 93 95 95 89 91 92 94 95 98 92 96 97 97 103 106 107 105 108 105 100 99 98 103 107 111 113 114 116 116 121 119 130 149 173 185 191
302 305 310 311 306 311 322 321 324 329 329 328 328 326 330 330 333 348 350 351 352 1 3 6 6 11 12 12 18 24 32 30 49 69 51 57 64 73 76 76 75 75 76 75 74 74 78 83 85 88 87 87 81 79 79 80 86 89 88 90 93 91 83 82 82 85 92 102 108 110 114 114 115 116 114 110 112 112 113 111 120 133 154 165 173 177 185
308 313 314 311 316 330 329 328 332 333 330 329 332 334 337 339 349 357 356 353 355 2 8 10 11 12 16 21 26 31 32 39 46 50 55 57 55 51 62 66 70 69 71 77 79 76 73 76 78 77 79 80 79 78 83 81 82 80 78 85 83 77 87 97 94 94 99 103 106 107 109 112 110 105 105 107 110 114 115 120 120 127 134 150 177 194 200
316 318 312 315 330 325 325 327 328 330 327 333 333 341 346 354 358 353 354 1 356 6 11 2 20 19 22 29 34 35 41 44 51 53 61 61 61 63 63 66 66 66 69 70 70 70 66 31 54 71 70 72 75 76 73 68 67 79 77 58 79 83 87 95 100 96 84 100 103 104 105 107 106 108 109 115 117 119 120 124 132 154 174 195 201 211 212
314 306 310 334 329 329 328 328 333 338 338 341 343 349 354 358 355 0 3 8 3 350 9 8 19 22 25 32 36 42 43 50 55 58 48 39 44 50 57 62 65 65 63 52 45 42 48 63 70 72 74 67 56 69 75 77 70 63 79 85 87 73 76 91 89 99 99 100 102 103 99 102 110 110 111 118 119 123 128 145 164 179 190 202 200 196 199